Home   Weather   Huelva   Past weeks

Flag for Spain Past Weather in Huelva, Spain — Yesterday and Last 2 Weeks

Now
54 °F

Sunny.


Feels Like: 52 °F
Forecast: 35 / 58 °F
Wind: 6 mph from West

Location: Rota Airport

Current Time: Jan 24, 2017 at 6:26:25 pm

Latest Report: Jan 24, 2017 at 6:00 pm


Visibility: 10 mi

Pressure: 30.27 "Hg

Humidity: 67%

Dew Point: 43 °F

Location of HuelvaLocation

Past Weather in Huelva — Graph

°F

Huelva Temperature Yesterday

Maximum temperature yesterday: 54 °F (at 4:00 pm)
Minimum temperature yesterday: 36 °F (at 9:00 am)
Average temperature yesterday: 46 °F

High & Low Weather Summary for the Past Weeks

 TemperatureHumidityPressure
High64 °F (Jan 11, 4:00 pm)100% (Jan 10, 2:00 am)30.39 "Hg (Jan 10, 2:00 am)
Low30 °F (Jan 19, 6:00 am)23% (Jan 18, 5:00 pm)29.95 "Hg (Jan 19, 5:00 pm)
Average48 °F71%30.16 "Hg
* Reported Jan 9 5:00 pm — Jan 24 5:00 pm, Huelva, Weather by CustomWeather, © 2017

Note: Actual official high and low records may vary slightly from our data, if they occured in-between our weather recording intervals... More about our weather records

Advertising

Huelva Weather History for the Previous 24 Hours

Scroll right to see more
 ConditionsComfort  
Time TempWeatherWind HumidityBarometerVisibility
5:00 pm
Tue, Jan 24
55 °FPassing clouds.6 mph63%30.27 "HgN/A
4:00 pm55 °FPassing clouds.6 mph63%30.27 "HgN/A
3:00 pm55 °FPassing clouds.6 mph67%30.27 "HgN/A
2:00 pm54 °FSunny.7 mph63%30.27 "Hg10 mi
1:00 pm54 °FPassing clouds.5 mph67%30.30 "HgN/A
12:00 pm52 °FSunny.1 mph67%30.33 "Hg10 mi
11:00 am46 °FClear.3 mph76%30.30 "Hg5 mi
10:00 am41 °FClear.3 mph93%30.27 "Hg4 mi
9:00 am37 °FClear.2 mph93%30.27 "Hg4 mi
8:21 am36 °FFog.2 mph93%30.27 "Hg3 mi
8:00 am34 °FClear.No wind93%30.24 "Hg4 mi
7:00 am36 °FClear.2 mph93%30.24 "Hg4 mi
6:00 am36 °FClear.1 mph93%30.21 "Hg6 mi
5:00 am37 °FClear.6 mph93%30.21 "Hg10 mi
4:00 am39 °FClear.6 mph87%30.21 "Hg10 mi
3:00 am41 °FClear.1 mph87%30.21 "Hg10 mi
2:00 am39 °FClear.5 mph87%30.21 "Hg10 mi
1:00 am43 °FClear.1 mph76%30.21 "Hg10 mi
12:00 am45 °FClear.No wind81%30.21 "Hg10 mi
11:00 pm
Mon, Jan 23
45 °FClear.No wind87%30.21 "Hg10 mi
10:00 pm41 °FClear.1 mph87%30.18 "Hg10 mi
9:00 pm45 °FClear.3 mph87%30.18 "Hg10 mi
8:00 pm46 °FClear.2 mph87%30.15 "Hg10 mi
7:00 pm48 °FClear.6 mph82%30.15 "Hg10 mi
6:00 pm52 °FPassing clouds.3 mph72%30.12 "HgN/A
Weather by CustomWeather, © 2017

See weather overviewHow to use our weather pages